Regional Weather Roundup
Issued by NWS Newport/Morehead, NC

Current Version | Previous Version | Graphics & Text | Print | Product List | Glossary On
Versions: 1 2 3 4 5 6 7 8 9 10 11 12 13 14 15 16 17 18 19 20 21 22 23 24 25 26 27 28 29 30 31 32 33 34 35 36 37 38 39 40 41 42 43 44 45 46 47 48 49 50
000 ASUS42 KMHX 271113 RWRMHX WEATHER ROUNDUP FOR EASTERN NORTH CAROLINA NATIONAL WEATHER SERVICE NEWPORT/MOREHEAD CITY NC 600 AM EST MON FEB 27 2017 NOTE: "FAIR" INDICATES FEW OR NO CLOUDS BELOW 12,000 FEET WITH NO SIGNIFICANT WEATHER AND/OR OBSTRUCTIONS TO VISIBILITY NCZ015>017-031-032-045>047-102-103-271200- NORTH COAST CITY SKY/WX TMP DP RH WIND PRES REMARKS EDENTON CLEAR 37 35 90 CALM 30.42R ELIZABETH CITY CLEAR 41 35 79 SE5 30.42R KITTY HAWK NOT AVBL MANTEO CLEAR 36 36 99 CALM 30.43R $$ NCZ045>047-081-094-103-104-271200- CENTRAL COAST CITY SKY/WX TMP DP RH WIND PRES REMARKS FRISCO CLEAR 45 37 73 NE5 30.40S $$ NCZ095-097-098-100-101-271200- SOUTHERN COAST CITY SKY/WX TMP DP RH WIND PRES REMARKS BEAUFORT CLEAR 39 36 89 NE3 30.40R CEDAR ISLAND NOT AVBL JACKSONVILLE CLEAR 35 34 96 CALM 30.40R PINEY ISLAND SUNNY N/A N/A N/A E7 30.40R WILMINGTON PTCLDY 32 32 100 CALM 30.39R $$ NCZ011>013-027>030-043-044-078>080-089-090>093-098-271200- COASTAL PLAIN CITY SKY/WX TMP DP RH WIND PRES REMARKS AHOSKIE N/A 29 27 89 CALM 30.41R CLINTON PTCLDY 36 31 82 CALM 30.37F ELIZABETHTOWN PTCLDY 35 33 94 E5 30.36S GOLDSBORO PTCLDY 34 29 80 E5 30.37R GREENVILLE CLEAR 32 32 100 CALM 30.40R HAVELOCK CLEAR 33 29 85 CALM 30.41 KENANSVILLE CLOUDY 28 27 93 CALM 30.39S KINSTON PTCLDY 31 28 90 CALM 30.40R NEW BERN PTCLDY 34 33 96 CALM 30.42R RICHLANDS CLEAR 29 27 92 CALM 30.40R ROCKY MOUNT CLEAR 30 29 96 CALM 30.39R WASHINGTON CLEAR 34 30 87 CALM 30.41R WHITEVILLE CLEAR 34 32 94 NE3 30.36R $$ AMZ130-135-150-152-154-156-158-170-250-252-270-ANZ085-086-088-633-658-670-271200- MARINE OBSERVATIONS STATION/POSITION TIME TEMP WIND PRES WAVE SWELL AIR SEA DIR/SP/G HT/PER HT/PER (UTC) (F) (DEG/KT/KT) (MB) (FT/S) (FT/S) CHESAPEAKE LIGHT NOT AVBL 64 E VA BEACH 1050 47 48 90/ 4/ 4 1030.1 3/ 9 3/ 9 DUCK 1048 47 49 120/ 9/ 9 1029.3 2 E DUCK 1100 49 N/A 2/ 9 OREGON INLET 1048 70/ 3/ 5 N/A 13E OREGON INLT NOT AVBL HATTERAS CG 1048 49 60 50/ 3/ 5 1029.1 DIAMOND BUOY 1050 57 71 40/ 6/ 10 1029.4 3/ 8 3/ 8 CAPE LOOKOUT 1100 57 60/ 6/ 7 1028.9 BEAUFORT LAB 1048 48 60 50/ 4/ 4 1028.2 30 SE NEW RVR IN 1008 57 110/ 6/ 10 1028.6 30 SE NEW RVR IN 1043 65 N/A 3/ 8 27 SE WRIGHTSVLE 1008 58 62 100/ 8/ 12 1027.5 5 SE WRIGHTSVLE 1008 55 58 50/ 6/ 10 1028.1 225 S CAPE HAT 1050 65 70 60/ 12/ 16 1027.4 4/ 8 3/ 8 41 SE CHARLESTON 1050 62 69 90/ 12/ 16 1026.7 3/ 9 2/ 9 $$

USA.gov is the U.S. government's official web portal to all federal, state and local government web resources and services.